TimeCST,TemperatureF,Dew PointF,Humidity,Sea Level PressureIn,VisibilityMPH,Wind Direction,Wind SpeedMPH,Gust SpeedMPH,PrecipitationIn,Events,Conditions,WindDirDegrees,DateUTC
12:54 AM,34.0,25.0,70,30.12,10.0,West,5.8,-,N/A,,Clear,260,2011-11-11 06:54:00
1:54 AM,34.0,25.0,70,30.12,10.0,WSW,4.6,-,N/A,,Clear,240,2011-11-11 07:54:00
2:54 AM,32.0,25.0,75,30.11,10.0,WSW,5.8,-,N/A,,Clear,250,2011-11-11 08:54:00
3:54 AM,28.9,24.1,82,30.12,10.0,SW,6.9,-,N/A,,Clear,230,2011-11-11 09:54:00
4:54 AM,28.0,25.0,88,30.11,10.0,SSW,6.9,-,N/A,,Clear,210,2011-11-11 10:54:00
5:54 AM,28.9,26.1,89,30.10,10.0,SSW,6.9,-,N/A,,Clear,200,2011-11-11 11:54:00
6:54 AM,30.9,27.0,85,30.10,10.0,SSW,8.1,-,N/A,,Clear,200,2011-11-11 12:54:00
7:54 AM,34.0,27.0,75,30.10,10.0,SSW,9.2,-,N/A,,Clear,200,2011-11-11 13:54:00
8:54 AM,37.9,28.0,68,30.08,10.0,SSW,11.5,-,N/A,,Clear,200,2011-11-11 14:54:00
9:54 AM,42.1,28.9,60,30.06,10.0,SSW,17.3,23.0,N/A,,Clear,200,2011-11-11 15:54:00
10:54 AM,44.1,28.0,53,30.04,10.0,South,16.1,20.7,N/A,,Clear,190,2011-11-11 16:54:00
11:54 AM,46.9,28.0,48,29.98,10.0,South,15.0,-,N/A,,Clear,170,2011-11-11 17:54:00
12:54 PM,48.0,28.9,48,29.94,10.0,South,16.1,-,N/A,,Clear,170,2011-11-11 18:54:00
1:54 PM,50.0,28.9,44,29.88,10.0,South,19.6,26.5,N/A,,Clear,170,2011-11-11 19:54:00
2:54 PM,51.1,30.9,46,29.85,10.0,South,20.7,28.8,N/A,,Clear,180,2011-11-11 20:54:00
3:54 PM,51.1,30.9,46,29.86,10.0,South,12.7,-,N/A,,Clear,180,2011-11-11 21:54:00
4:54 PM,48.0,32.0,54,29.85,10.0,South,10.4,-,N/A,,Clear,180,2011-11-11 22:54:00
5:54 PM,45.0,32.0,60,29.85,10.0,South,8.1,-,N/A,,Clear,170,2011-11-11 23:54:00
6:54 PM,43.0,32.0,65,29.85,10.0,South,4.6,-,N/A,,Clear,170,2011-11-12 00:54:00
7:54 PM,45.0,34.0,65,29.83,10.0,South,13.8,-,N/A,,Clear,190,2011-11-12 01:54:00
8:54 PM,46.0,36.0,68,29.84,10.0,SSW,15.0,-,N/A,,Clear,200,2011-11-12 02:54:00
9:54 PM,46.9,37.0,68,29.84,10.0,SW,15.0,-,N/A,,Clear,220,2011-11-12 03:54:00
10:54 PM,45.0,36.0,71,29.84,10.0,SW,9.2,-,N/A,,Clear,220,2011-11-12 04:54:00
11:54 PM,45.0,36.0,71,29.85,10.0,SSW,9.2,-,N/A,,Clear,210,2011-11-12 05:54:00